Regional Weather Roundup
Issued by NWS

Home | Current Version | Previous Version | Text Only | Print | Product List | Glossary On
Versions: 1 2 3 4 5 6 7 8 9 10 11 12 13 14 15 16 17 18 19 20 21 22 23 24 25 26 27 28 29 30 31 32 33 34 35 36 37 38 39 40 41 42 43 44 45 46 47 48 49 50
000
ASUS43 KMKX 240020
RWRWI

WISCONSIN REGIONAL WEATHER ROUNDUP
NATIONAL WEATHER SERVICE MILWAUKEE/SULLIVAN WI
600 PM CST MON JAN 23 2017

NOTE: "FAIR" INDICATES FEW OR NO CLOUDS BELOW 12,000 FEET WITH NO
SIGNIFICANT WEATHER AND/OR OBSTRUCTIONS TO VISIBILITY.

WIZ001-002-006>008-014>016-023>028-240100-
NORTHWEST WISCONSIN

CITY           SKY/WX    TMP DP  RH WIND       PRES   REMARKS
SUPERIOR ARPT  CLOUDY    35  33  95 NW3       29.81S
6HR MIN TEMP:  35; 6HR MAX TEMP:  40;

ASHLAND        CLOUDY    35  34  96 SW5       29.80S WCI  31
6HR MIN TEMP:  35; 6HR MAX TEMP:  38;

HAYWARD        CLOUDY    35  32  88 CALM      29.79S
6HR MIN TEMP:  35; 6HR MAX TEMP:  38;

SIREN          CLOUDY    33  33  97 W3        29.82R
6HR MIN TEMP:  33; 6HR MAX TEMP:  35;

CUMBERLAND     CLOUDY    32  30  93 NW3       29.81R
RICE LAKE      CLOUDY    34  33  96 SW3       29.82S
6HR MIN TEMP:  33; 6HR MAX TEMP:  35;

CHETEK         CLOUDY    32  32 100 CALM      29.82R
6HR MIN TEMP:  32; 6HR MAX TEMP:  36;

LADYSMITH      CLOUDY    35  34  99 W5        29.81S WCI  30
6HR MIN TEMP:  35; 6HR MAX TEMP:  37;

EAU CLAIRE     CLOUDY    34  34 100 CALM      29.81S
6HR MIN TEMP:  34; 6HR MAX TEMP:  35; 6HR PCP: TRACE;

MENOMONIE        N/A    N/A N/A N/A MISG        N/A
NEW RICHMOND   CLOUDY    32  32  99 CALM      29.83R FOG
6HR MIN TEMP:  32; 6HR MAX TEMP:  35;

OSCEOLA        CLOUDY    33  33 100 CALM      29.85S FOG
6HR MIN TEMP:  33; 6HR MAX TEMP:  36;

$$

WIZ003>005-009-010-017-018-240100-
NORTH CENTRAL WISCONSIN

CITY           SKY/WX    TMP DP  RH WIND       PRES   REMARKS
MANITOWISH WTR FOG       33  33 100 CALM      29.77S VSB 1/2
6HR MIN TEMP:  33; 6HR MAX TEMP:  34;

ARBOR VITAE    DRZL/FOG  37  36  96 CALM      29.77R VSB 1
6HR MIN TEMP:  37; 6HR MAX TEMP:  37;

WOODRUFF       DRZL/FOG  37  36  96 CALM      29.77R VSB 1
6HR MIN TEMP:  37; 6HR MAX TEMP:  37;

RHINELANDER    CLOUDY    36  34  92 W7        29.77R WCI  30
6HR MIN TEMP:  36; 6HR MAX TEMP:  38;

EAGLE RIVER    CLOUDY    35  35 100 NW3       29.75S
6HR MIN TEMP:  34; 6HR MAX TEMP:  37;

LAND O LAKES   CLOUDY    35  35  99 CALM      29.77S
6HR MIN TEMP:  35; 6HR MAX TEMP:  37;

PHILLIPS       CLOUDY    33  33 100 NW3       29.77S
6HR MIN TEMP:  34; 6HR MAX TEMP:  35;

TOMAHAWK       CLOUDY    34  33  96 W5        29.78R FOG     WCI  30
6HR MIN TEMP:  34; 6HR MAX TEMP:  36;

MEDFORD        FOG       33  33 100 NW3       29.77S VSB 3/4
6HR MIN TEMP:  33; 6HR MAX TEMP:  34;

MERRILL        CLOUDY    35  35 100 NW3         N/A
6HR MIN TEMP:  35; 6HR MAX TEMP:  37;

$$

WIZ029-030-035-036-043>047-240100-
CENTRAL WISCONSIN

CITY           SKY/WX    TMP DP  RH WIND       PRES   REMARKS
WAUSAU         CLOUDY    34  33  96 NW6       29.77R WCI  29
6HR MIN TEMP:  34; 6HR MAX TEMP:  36;

MOSINEE        CLOUDY    34  34 100 NW5       29.79R WCI  30
MARSHFIELD     CLOUDY    34  32  92 W7        29.78R FOG     WCI  28
6HR MIN TEMP:  34; 6HR MAX TEMP:  34;

STEVENS POINT  CLOUDY    33  33 100 CALM      29.79S
6HR MIN TEMP:  33; 6HR MAX TEMP:  36;

WAUPACA        CLOUDY    38  35  87 CALM      29.79R
6HR MIN TEMP:  38; 6HR MAX TEMP:  41;

WAUTOMA        CLOUDY    36  34  92 NW6       29.79S WCI  31
6HR MIN TEMP:  35; 6HR MAX TEMP:  38;

WISC RAPIDS    CLOUDY    35  35 100 CALM      29.80R
6HR MIN TEMP:  35; 6HR MAX TEMP:  37;

CAMP DOUGLAS   CLOUDY    36  34  93 W5        29.81R WCI  32
$$

WIZ011>013-019>022-031-037>040-048>050-240100-
NORTHEAST WISCONSIN

CITY           SKY/WX    TMP DP  RH WIND       PRES   REMARKS
ANTIGO         CLOUDY    35  33  94 NW5       29.76R WCI  31
6HR MIN TEMP:  34; 6HR MAX TEMP:  36;

SHAWANO        CLOUDY    38  35  90 CALM      29.78R
OCONTO         CLOUDY    36  35  97 CALM      29.78S
6HR MIN TEMP:  35; 6HR MAX TEMP:  38;

STURGEON BAY   FOG       35  35 100 CALM      29.78R VSB 1/4
6HR MIN TEMP:  35; 6HR MAX TEMP:  36;

GREEN BAY      CLOUDY    38  36  92 NW3       29.77F
6HR MIN TEMP:  37; 6HR MAX TEMP:  40;

MANITOWOC      CLOUDY    37  35  92 MISG      29.78S
6HR MIN TEMP:  37; 6HR MAX TEMP:  40;

APPLETON       CLOUDY    36  36 100 W9        29.76R WCI  29
CLINTONVILLE   CLOUDY    36  34  93 W3        29.78R
OSHKOSH        CLOUDY    36  33  89 W6        29.78R WCI  31
6HR MIN TEMP:  36; 6HR MAX TEMP:  39;

$$

WIZ032>034-041-042-053>061-240100-
SOUTHWEST WISCONSIN

CITY           SKY/WX    TMP DP  RH WIND       PRES   REMARKS
LA CROSSE      CLOUDY    37  33  85 N3        29.83S
6HR MIN TEMP:  37; 6HR MAX TEMP:  39;

SPARTA         CLOUDY    33  33  99 CALM      29.84R
6HR MIN TEMP:  33; 6HR MAX TEMP:  35;

VIROQUA        CLOUDY    33  33 100 W3        29.81R
6HR MIN TEMP:  33; 6HR MAX TEMP:  35;

BOSCOBEL       CLOUDY    38  31  76 CALM      29.84R
6HR MIN TEMP:  37; 6HR MAX TEMP:  41;

PRAIRIE DU CHI CLOUDY    36  32  85 CALM      29.83S
6HR MIN TEMP:  36; 6HR MAX TEMP:  38;

PLATTEVILLE    CLOUDY    36  34  93 N6        29.82R WCI  31
6HR MIN TEMP:  36; 6HR MAX TEMP:  38;

$$

WIZ056-057-062-063-064-067-068-240100-
SOUTH CENTRAL WISCONSIN

CITY           SKY/WX    TMP DP  RH WIND       PRES   REMARKS
REEDSBURG      CLOUDY    35  35  99 W6        29.81R WCI  30
6HR MIN TEMP:  35; 6HR MAX TEMP:  38;

BARABOO/DELLS  CLOUDY    35  33  92 W5        29.80R WCI  31
6HR MIN TEMP:  35; 6HR MAX TEMP:  37;

LONE ROCK      CLOUDY    37  32  82 W6        29.82R WCI  32
6HR MIN TEMP:  37; 6HR MAX TEMP:  42;

MINERAL POINT  CLOUDY    36  34  93 W7        29.81R WCI  30
MADISON        CLOUDY    37  35  92 NW3       29.81R
6HR MIN TEMP:  37; 6HR MAX TEMP:  40;

MIDDLETON      CLOUDY    38  38 100 NW5       29.81R WCI  34
6HR MIN TEMP:  38; 6HR MAX TEMP:  40;

WATERTOWN      CLOUDY    37  37  99 NW5       29.78S WCI  33
6HR MIN TEMP:  37; 6HR MAX TEMP:  38;

MONROE         CLOUDY    36  34  93 NW9       29.79S WCI  29
JANESVILLE     CLOUDY    39  37  93 NW7       29.79R WCI  34
$$

WIZ051-052-058>065-066-070>072-240100-
SOUTHEAST WISCONSIN

CITY           SKY/WX    TMP DP  RH WIND       PRES   REMARKS
MILWAUKEE      CLOUDY    41  35  79 NW8       29.78R
6HR MIN TEMP:  41; 6HR MAX TEMP:  44;

WAUKESHA       CLOUDY    36  34  93 NW9       29.78S FOG     WCI  29
MILWAUKEE/TIMM CLOUDY    37  34  87 NW7       29.79R WCI  32
RACINE         CLOUDY    39  34  82 NW7       29.79R WCI  34
6HR MIN TEMP:  39; 6HR MAX TEMP:  42;

KENOSHA        CLOUDY    39  35  86 NW7       29.77R WCI  34
6HR MIN TEMP:  39; 6HR MAX TEMP:  42;

FOND DU LAC    CLOUDY    37  33  85 W3        29.78R
6HR MIN TEMP:  37; 6HR MAX TEMP:  40;

SHEBOYGAN      MOCLDY    36  33  89 W5        29.78R WCI  32
6HR MIN TEMP:  36; 6HR MAX TEMP:  42;

WEST BEND      CLOUDY    36  36 100 NW6       29.78R WCI  31
JUNEAU         CLOUDY    36  34  93 NW3       29.79R
6HR MIN TEMP:  35; 6HR MAX TEMP:  37;

$$

LSZ147-162-240100-
LAKE SUPERIOR

STATION/POSITION TIME  TEMP    WIND        PRES    WAVE
                       AIR SEA DIR/SP/G            HT/PER
                 (UTC) (F)     (DEG/KT/KT) (MB)    (FT/S)
DEVILS ISLAND    0000   35     240/  5/  5 1009.6S
PORT WING        2330   36     240/  5/  8 1009.5R
SAXON HARBOR     2340   34      CALM  /  2 1009.1S
$$

LMZ867-665-643>646-240100-
LAKE MICHIGAN

STATION/POSITION TIME  TEMP    WIND        PRES    WAVE
                       AIR SEA DIR/SP/G            HT/PER
                 (UTC) (F)     (DEG/KT/KT) (MB)    (FT/S)
NORTHPORT PIER   2340   33     320/  5/  6 1008.1R
SISTER BAY       2320   33     350/  5/  5   N/A
KEWAUNEE LAKESHO 2348   36     320/  3/  5 1007.9R
SHEBOYGAN LAKESH 0000   38     290/  7/  8 1008.5R
PORT WASHINGTON  2330   39     290/  5/  8 1009.1R
KE



USA.gov is the U.S. government's official web portal to all federal, state and local government web resources and services.